Tracking 30313 objects as of 22-Apr-2025
HD Live streaming from Space Station
objects crossing your sky now

THORAD DELTA 1 DEB

Track THORAD DELTA 1 DEB now!
10-day predictions


NORAD ID: 8146
Int'l Code: 1974-089Q
Perigee: 1,306.3 km
Apogee: 1,596.4 km
Inclination: 102.0 °
Period: 114.8 minutes
Semi major axis: 7822 km
RCS: 0.2088 m2 (medium)
Launch date: November 15, 1974
Source: United States (US)
Launch site: AIR FORCE WESTERN TEST RANGE (AFWTR)

Note: This is SATELLITE DEBRIS
Your satellite tracking list
Your tracking list is empty




NASA's NSSDC Master Catalog

Two Line Element Set (TLE):
1 08146U 74089Q   25111.95963310  .00000056  00000-0  59638-3 0  9998
2 08146 101.9766  99.5413 0185480 229.8803 152.0246 12.54866662308287
Source of the keplerian elements: AFSPC